User: anonymous   Login
Location: Unspecified
(0.0000°N, 0.0000°E)
Time: 12:42:22
(UTC+00:00)
Language:

Envisat - Orbit

View from above orbital plane
View from above orbital plane
View from above satellite
View from above satellite

Ground track
Ground track

The orbit is defined by the following mean orbital elements,

1 27386U          26105.87130446 +.00000000 +00000-0 +24832-4 0 00009
2 27386  98.3786  58.5978 0001157  84.3003 288.9145 14.39049572    04
Epoch (UTC): 15 April 2026 20:54:40
Eccentricity: 0.0001157
inclination: 98.3786°
perigee height: 761 km
apogee height: 762 km
right ascension of ascending node: 58.5978°
argument of perigee: 84.3003°
revolutions per day: 14.39049572
mean anomaly at epoch: 288.9145°

The dashed part of the orbit path shows where the satellite is in the earth's shadow,  

DLR